Regional Weather Roundup
Issued by NWS

Home | Current Version | Previous Version | Graphics & Text | Print | Product List | Glossary On
Versions: 1 2 3 4 5 6 7 8 9 10 11 12 13 14 15 16 17 18 19 20 21 22 23 24 25 26 27 28 29 30 31 32 33 34 35 36 37 38 39 40 41 42 43 44 45 46 47 48 49 50
000
ASUS43 KIND 190709
RWRIN

WEATHER ROUNDUP FOR INDIANA
NATIONAL WEATHER SERVICE INDIANAPOLIS IN
300 AM EDT SAT AUG 19 2017

NOTE: "FAIR" INDICATES FEW OR NO CLOUDS BELOW 12,000 FEET WITH NO
SIGNIFICANT WEATHER AND/OR OBSTRUCTIONS TO VISIBILITY.

* - STATION DOES NOT REPORT WEATHER SUCH AS PRECIPITATION OR FOG.

+ - STATION NOT QUALITY CONTROLLED BY THE NATIONAL WEATHER SERVICE.
    USE DATA WITH CAUTION...ESPECIALLY DEWPOINT AND RELATIVE
    HUMIDITY OBSERVATIONS.

INZ001>003-010>013-019-020-190800-
NORTHWEST INDIANA

CITY           SKY/WX    TMP DP  RH WIND       PRES   REMARKS
GARY /AIRPORT/ CLOUDY    72  60  64 N8        29.90R
KNOX *+        CLOUDY    64  63  94 W7        29.90R
LA PORTE +     CLOUDY    65  63  90 SW5       29.90R
MICHIGAN CITY+ CLOUDY    64  64 100 N5        29.89R
MONTICELLO +   PTCLDY    68  65  91 CALM      29.87F
RENSSELAER +   CLOUDY    66  61  82 W3        29.89R
VALPARAISO     LGT RAIN  69  66  90 SW5       29.91R FOG

$$

LMZ046-743>745-190800-
SOUTHERN LAKE MICHIGAN

STATION/POSITION TIME  TEMP    WIND        PRES    WAVE
                       AIR SEA DIR/SP/G            HT
                 (UTC) (F)     (DEG/KT/KT) (MB)    (FT)
BURNS HARBOR     0640   73     340/ 14/ 16 1012.2S
MICHIGAN CITY    0640   72     320/ 18/ 18   N/A
5NW MICH CITY    0700   72 74  330/ 14/ 17   N/A     2

$$

INZ004-005-014>016-021>024-190800-
NORTH CENTRAL INDIANA

CITY           SKY/WX    TMP DP  RH WIND       PRES   REMARKS
GOSHEN         MOCLDY    64  60  87 CALM      29.88F
LOGANSPORT +   LGT RAIN  66  63  88 SW8       29.88F
PERU/GRISSOM   MOCLDY    66  66  98 S6        29.88F
ROCHESTER +    CLOUDY    70  64  83 CALM      29.89S
SOUTH BEND     CLOUDY    65  64  97 CALM      29.89R
WARSAW +       MOCLDY    63  63 100 CALM      29.89S

$$

INZ006>009-017-018-025>027-190800-
NORTHEAST INDIANA

CITY           SKY/WX    TMP DP  RH WIND       PRES   REMARKS
AUBURN +       PTCLDY    63  61  94 CALM      29.90F
FORT WAYNE     MOCLDY    65  62  90 CALM      29.90F
HUNTINGTON +   CLOUDY    66  65  96 S3        29.89F
KENDALLVILLE + PTCLDY    62  62 100 CALM      29.89F

$$

INZ028-029-035-036-043>045-051>053-190800-
WEST CENTRAL INDIANA

CITY           SKY/WX    TMP DP  RH WIND       PRES   REMARKS
GREENCASTLE +  PTCLDY    64  63  94 S3        29.92F
LAFAYETTE      PTCLDY    67  65  93 N3        29.87F
TERRE HAUTE    MOCLDY    66  62  87 CALM      29.91F

$$

INZ030>032-037>040-046>048-054>057-064-065-190800-
CENTRAL INDIANA

CITY           SKY/WX    TMP DP  RH WIND       PRES   REMARKS
CP ATTERBURY + CLOUDY    64  63  94 CALM      29.94F
FRANKFORT +    LGT RAIN  70  66  88 SW3       29.90F
GREENWOOD *+   CLOUDY    67  62  83 S3        29.94F
INDIANAPOLIS   MOCLDY    68  63  84 SW5       29.91F
-EAGLE CREEK   PTCLDY    70  63  78 S7        29.91F
KOKOMO +       MOCLDY    67  64  90 S6        29.90F
MARION +       MOCLDY    64  63  94 S3        29.91F
MT COMFORT *+  CLOUDY    66  63  88 S5        29.93F
SHELBYVILLE    CLOUDY    68  62  81 S5        29.92F
ZIONSVILLE +   MOCLDY    67  63  87 SW5       29.92F

$$

INZ033-034-041-042-049-050-058-059-190800-
EAST CENTRAL INDIANA

CITY           SKY/WX    TMP DP  RH WIND       PRES   REMARKS
MUNCIE         MOCLDY    71  62  73 S6        29.91F
RICHMOND +     CLOUDY    64  63  94 W5        29.95F

$$

INZ060-061-067>069-081>083-085>088-190800-
SOUTHWEST INDIANA

CITY           SKY/WX    TMP DP  RH WIND       PRES   REMARKS
EVANSVILLE     CLOUDY    75  65  70 CALM      29.92F
HUNTINGBURG +  CLOUDY    71  67  87 SE3       29.94F
WASHINGTON +   CLOUDY    73  63  71 MISG      29.91F

$$

INZ062-063-066-070>080-084-089>092-190800-
SOUTH CENTRAL AND SOUTHEAST INDIANA

CITY           SKY/WX    TMP DP  RH WIND       PRES   REMARKS
BEDFORD +      CLOUDY    68  63  83 CALM      29.94F
BLOOMINGTON    CLOUDY    71  63  75 SW5       29.93F
MADISON *+     CLOUDY    68  64  88 CALM      29.98S
NORTH VERNON + PTCLDY    66  64  94 CALM      29.95F
SEYMOUR +      CLOUDY    70  64  83 CALM      29.94F

$$





USA.gov is the U.S. government's official web portal to all federal, state and local government web resources and services.